Le nostre stazioni meteo in Italia

Pubblicità
Il mio iltempo24.it
Dalwhinnie, Gran Bretagna (99005): Temperatura & dewpoint: 10.02.2019 06:00:00 - 16.02.2019 06:00:00 (GMT)Dalwhinnie, Gran Bretagna (99005): precipitazioni: 10.02.2019 06:00:00 - 16.02.2019 06:00:00 (GMT)
Data & Tempo tt [°C] td [°C] rr [mm]
16.02.2019 06:00:00 6,4 5,6 0,0
16.02.2019 05:00:00 6,2 5,5 0,2
16.02.2019 04:00:00 6,0 4,7 0,0
16.02.2019 03:00:00 6,4 5,3 0,2
16.02.2019 02:00:00 6,6 4,7 1,6
16.02.2019 01:00:00 6,4 4,2 4,0
16.02.2019 00:00:00 7,4 6,3 1,8
15.02.2019 23:00:00 7,2 5,7 2,2
15.02.2019 22:00:00 7,1 5,5 0,4
15.02.2019 21:00:00 7,6 5,2 0,0
15.02.2019 20:00:00 7,8 5,2 0,0
15.02.2019 19:00:00 7,8 4,8 0,0
15.02.2019 18:00:00 7,1 4,4 0,0
15.02.2019 17:00:00 7,9 4,0 0,0
15.02.2019 16:00:00 8,6 3,8 0,0
15.02.2019 15:00:00 8,3 3,4 0,0
15.02.2019 14:00:00 8,5 3,4 0,0
15.02.2019 13:00:00 7,9 2,8 0,0
15.02.2019 12:00:00 8,0 1,2 0,0
15.02.2019 11:00:00 7,3 -0,9 0,0
15.02.2019 10:00:00 6,8 -3,5 0,0
15.02.2019 09:00:00 4,8 -5,0 0,0
15.02.2019 08:00:00 5,4 -5,3 0,0
15.02.2019 07:00:00 5,7 -3,6 0,0
15.02.2019 06:00:00 5,0 -2,1 0,0
15.02.2019 05:00:00 5,0 -1,2 0,0
15.02.2019 04:00:00 5,2 -1,6 0,0
15.02.2019 03:00:00 6,1 -1,7 0,0
15.02.2019 02:00:00 5,6 -0,6 0,0
15.02.2019 01:00:00 3,3 0,1 0,0
15.02.2019 00:00:00 6,3 1,1 0,0
14.02.2019 23:00:00 6,6 1,4 0,0
14.02.2019 22:00:00 6,2 2,3 0,0
14.02.2019 21:00:00 6,6 2,3 0,0
14.02.2019 20:00:00 6,5 2,4 0,0
14.02.2019 19:00:00 6,1 3,0 0,0
14.02.2019 18:00:00 6,5 3,4 0,0
14.02.2019 17:00:00 6,9 3,9 0,0
14.02.2019 16:00:00 7,9 4,4 0,0
14.02.2019 15:00:00 7,9 5,4 0,0
14.02.2019 14:00:00 7,6 5,7 0,0
14.02.2019 13:00:00 7,5 5,8 0,0
14.02.2019 12:00:00 7,6 5,9 0,0
14.02.2019 11:00:00 7,7 6,1 0,0
14.02.2019 10:00:00 7,3 6,1 0,0
14.02.2019 09:00:00 7,5 5,9 0,0
14.02.2019 08:00:00 6,9 5,9 0,2
14.02.2019 07:00:00 6,7 6,0 0,2
14.02.2019 06:00:00 6,6 5,8 0,0
14.02.2019 05:00:00 6,7 5,6 0,0
14.02.2019 04:00:00 6,7 5,8 0,0
14.02.2019 03:00:00 6,8 5,7 0,2
14.02.2019 02:00:00 6,7 5,5 0,2
14.02.2019 01:00:00 6,7 5,4 0,0
14.02.2019 00:00:00 6,8 5,2 0,0
13.02.2019 23:00:00 7,6 4,3 0,0
13.02.2019 22:00:00 7,9 4,2 0,0
13.02.2019 21:00:00 7,8 4,5 0,0
13.02.2019 20:00:00 7,5 4,8 0,0
13.02.2019 19:00:00 7,6 4,9 0,0
13.02.2019 18:00:00 7,7 4,8 0,0
13.02.2019 17:00:00 8,0 5,1 0,0
13.02.2019 16:00:00 8,1 5,3 0,0
13.02.2019 15:00:00 7,7 5,7 0,0
13.02.2019 14:00:00 7,7 6,0 0,0
13.02.2019 13:00:00 7,4 6,2 0,0
13.02.2019 12:00:00 7,2 6,0 0,2
13.02.2019 11:00:00 7,1 6,1 0,2
13.02.2019 10:00:00 6,9 6,1 0,0
13.02.2019 09:00:00 7,0 6,1 0,2
13.02.2019 08:00:00 7,1 6,1 0,4
13.02.2019 07:00:00 7,1 6,2 0,8
13.02.2019 06:00:00 6,6 5,7 0,6
13.02.2019 05:00:00 6,3 5,0 0,0
13.02.2019 04:00:00 6,0 4,3 0,0
13.02.2019 03:00:00 6,8 2,5 0,0
13.02.2019 02:00:00 5,9 1,8 0,0
13.02.2019 01:00:00 5,7 1,7 0,0
13.02.2019 00:00:00 4,2 -0,9 0,0
12.02.2019 23:00:00 7,0 2,1 0,0
12.02.2019 22:00:00 7,2 2,1 0,0
12.02.2019 21:00:00 7,3 2,0 0,0
12.02.2019 20:00:00 7,2 1,9 0,0
12.02.2019 19:00:00 7,0 1,6 0,0
12.02.2019 18:00:00 7,6 1,3 0,0
12.02.2019 17:00:00 8,1 2,5 0,0
12.02.2019 16:00:00 9,4 3,4 0,0
12.02.2019 15:00:00 9,5 5,2 0,0
12.02.2019 14:00:00 7,9 6,6 0,0
12.02.2019 13:00:00 7,1 6,3 0,6
12.02.2019 12:00:00 7,2 5,5 0,6
12.02.2019 11:00:00 7,8 5,9 0,0
12.02.2019 10:00:00 6,2 5,2 0,0
12.02.2019 09:00:00 6,2 4,8 0,0
12.02.2019 08:00:00 5,2 4,6 0,0
12.02.2019 07:00:00 5,3 4,3 0,2
12.02.2019 06:00:00 5,2 4,1 0,0
12.02.2019 05:00:00 5,4 3,3 0,0
12.02.2019 04:00:00 5,5 3,4 0,0
12.02.2019 03:00:00 5,1 3,7 0,0
12.02.2019 02:00:00 4,6 3,6 0,0
12.02.2019 01:00:00 4,1 3,1 0,0
12.02.2019 00:00:00 3,6 2,4 0,0
11.02.2019 23:00:00 3,4 1,6 0,0
11.02.2019 22:00:00 3,3 1,1 0,0
11.02.2019 21:00:00 3,2 0,5 0,0
11.02.2019 20:00:00 3,2 -0,1 0,0
11.02.2019 19:00:00 1,8 -1,1 0,0
11.02.2019 18:00:00 1,1 -2,6 0,0
11.02.2019 17:00:00 2,0 -2,9 0,0
11.02.2019 16:00:00 3,1 -2,6 0,0
11.02.2019 15:00:00 3,4 -2,4 0,0
11.02.2019 14:00:00 3,9 -1,8 0,0
11.02.2019 13:00:00 3,7 -1,7 0,0
11.02.2019 12:00:00 3,1 -1,0 0,0
11.02.2019 11:00:00 1,0 -1,2 0,0
11.02.2019 10:00:00 -0,4 -2,3 0,0
11.02.2019 09:00:00 -2,1 -3,4 0,0
11.02.2019 08:00:00 -1,6 -2,8 0,0
11.02.2019 07:00:00 -1,9 -2,9 0,0
11.02.2019 06:00:00 -0,8 -1,7 0,0
11.02.2019 05:00:00 0,2 -1,4 0,0
11.02.2019 04:00:00 0,7 -1,2 0,0
11.02.2019 03:00:00 1,3 -1,1 0,0
11.02.2019 02:00:00 1,4 -0,6 0,0
11.02.2019 01:00:00 1,2 -0,5 0,0
11.02.2019 00:00:00 1,3 -0,5 0,4
10.02.2019 23:00:00 2,0 0,4 0,0
10.02.2019 22:00:00 2,3 0,0 0,0
10.02.2019 21:00:00 2,3 -0,7 0,0
10.02.2019 20:00:00 1,2 -1,3 0,0
10.02.2019 19:00:00 1,6 -1,3 0,0
10.02.2019 18:00:00 1,4 -1,9 0,0
10.02.2019 17:00:00 2,5 -1,6 0,0
10.02.2019 16:00:00 4,1 -1,5 0,0
10.02.2019 15:00:00 2,8 -1,6 0,0
10.02.2019 14:00:00 3,8 -1,4 0,0
10.02.2019 13:00:00 3,6 -1,7 0,0
10.02.2019 12:00:00 3,5 -1,3 0,0
10.02.2019 11:00:00 2,8 -1,5 0,0
10.02.2019 10:00:00 0,9 -1,8 0,0
10.02.2019 09:00:00 -0,6 -2,3 0,0
10.02.2019 08:00:00 -0,5 -2,6 0,0
10.02.2019 07:00:00 -0,8 -1,8 0,0
10.02.2019 06:00:00 0,8 -1,9 0,0

tt = Temperatura
td = dewpoint
rr = precipitazioni

Stazioni seguenti

WeatherPro
AMSI
MeteoEarth